CAPE
0 0 0 0 0 0 0 7 33 82 12 19 10 37 316 753 1310 1343 1410 1291 1607 1984 1997 2517 2665 2639 2433 2036 1571 1355 1323 1359 1313 1130 1150 1028 905 681 576 458 354 245 112 74
0 0 0 0 0 0 0 0 0 10 0 9 12 37 76 425 986 1440 1597 1544 1524 2181 2258 2477 2507 2346 1881 1497 1306 1321 1406 1361 1344 1156 969 819 631 487 436 258 50 48 3 3
0 0 0 0 0 0 0 0 20 11 16 0 1 11 62 341 717 1148 1553 1748 1839 2302 2217 2241 2279 1848 1383 1241 1320 1342 1294 1168 1022 975 829 561 520 407 184 9 3 3 1 0
0 0 0 0 0 0 0 0 0 0 0 0 0 3 19 153 553 902 1431 1806 1998 2100 2092 2291 2055 1374 1027 1156 1201 1234 1205 1016 981 887 748 505 252 70 1 0 2 0 0 0
0 12 0 0 0 0 0 0 0 1 0 0 0 0 4 616 491 807 1134 1830 2039 2022 2194 2294 1740 1132 1056 1044 1146 1146 1038 1001 947 684 461 267 42 0 0 0 0 0 0 0
20 45 15 5 1 0 1 7 55 61 33 71 38 57 554 1181 1053 885 1141 1770 2105 2202 2375 2232 1561 1190 1099 1045 1068 1043 1050 773 615 531 330 155 3 0 0 0 0 0 0 0
2 23 62 187 321 83 0 371 651 617 753 850 709 1014 827 860 1104 955 1360 1781 2235 2398 2439 2062 1568 1362 1177 1077 981 1066 824 543 375 242 125 2 0 0 0 0 0 0 0 0
39 19 52 445 222 190 778 773 737 725 794 888 897 1047 982 1106 1161 1101 1596 1965 2387 2497 2239 1893 1586 1380 1219 1051 1010 828 677 446 261 86 0 0 0 0 0 0 0 0 0 0
237 287 16 4 27 586 601 659 702 567 584 790 869 1074 1007 1540 1237 1342 1773 2289 2494 2392 2035 1760 1447 1265 1377 1131 1046 584 425 291 108 0 0 0 0 0 0 0 0 0 4 1
59 100 26 51 102 444 425 443 425 341 429 656 876 1031 1157 1565 1449 1715 1924 2617 2461 2042 1844 1681 1514 1581 1401 966 569 501 329 113 7 0 0 0 0 0 0 0 0 0 0 0
396 62 127 297 569 511 437 348 451 488 461 620 851 993 1309 1482 1597 2060 2351 2454 2310 2051 1897 1696 1396 1152 638 401 297 255 20 0 0 0 0 0 0 0 0 0 0 0 0 0
216 637 703 814 426 358 382 454 573 617 669 703 1027 1120 1393 1672 1978 1916 2641 2533 2376 1961 1641 982 392 186 132 42 25 0 0 0 0 0 0 0 0 0 0 0 0 0 0 0
120 213 251 321 191 181 298 391 550 690 784 900 1008 1167 1470 1987 2433 2550 2887 2251 1799 1115 756 315 283 52 1 0 2 0 0 0 0 0 0 0 0 0 0 0 0 0 0 0
28 56 49 109 181 222 407 527 669 706 907 963 1166 1425 1493 1822 1706 1738 1455 1082 873 576 375 250 146 4 0 0 0 0 0 0 0 0 0 0 0 0 0 0 0 0 0 0
0 9 73 100 196 297 514 635 729 763 896 1024 1318 1593 1682 1852 1432 997 780 705 668 602 416 275 45 3 0 0 0 0 0 0 0 0 0 0 0 0 0 0 0 0 0 0
61 287 276 274 411 555 626 686 773 770 932 1146 1299 1614 1699 1440 678 484 537 590 681 464 119 3 6 1 0 0 0 0 0 0 0 0 0 0 0 0 0 0 0 0 0 0
450 350 270 264 377 688 720 655 642 734 823 1352 1559 1685 1235 591 340 116 193 153 8 3 4 0 0 0 0 0 0 0 0 0 0 0 0 0 0 0 0 0 0 0 0 0
1133 1064 927 552 547 810 764 692 735 841 972 1609 1819 1427 841 361 183 86 141 14 1 3 0 0 0 0 0 0 0 0 0 0 0 0 0 0 0 0 0 0 0 0 0 4
1080 1078 1102 1113 949 800 900 903 1115 1182 1708 2003 1669 1144 896 618 504 268 30 0 0 0 0 0 0 0 0 0 0 0 0 0 0 0 0 0 0 0 0 0 0 0 6 17
1164 1120 822 933 978 834 930 1219 1510 1904 2100 1834 1736 1407 1047 590 100 0 0 0 0 0 0 0 0 0 0 0 0 0 0 0 0 0 0 0 0 0 0 0 0 3 7 13
1018 1257 1244 884 852 942 1013 1388 1858 2076 2024 1712 1476 1257 941 472 19 0 0 0 0 0 0 0 0 0 0 0 0 0 0 0 0 0 0 0 0 0 0 1 1 7 9 18
1086 1098 1387 1169 894 1033 1083 1431 1868 2126 1963 1734 1579 1323 740 198 3 2 0 0 0 0 0 0 0 0 0 0 0 0 0 0 0 0 0 0 0 0 1 0 6 10 21 29
962 1102 1228 1516 1309 1003 1227 1552 1850 1995 1979 1833 1600 1292 569 111 2 0 1 1 0 0 0 0 0 0 0 0 0 0 0 0 0 0 0 0 0 0 0 4 9 29 34 25
913 998 1164 1214 1422 1460 1121 1214 1623 1798 1960 1613 1179 823 296 16 0 0 26 0 0 0 0 0 0 0 0 0 0 0 0 0 0 0 0 0 0 0 4 21 34 39 45 34
887 882 949 1110 1265 1463 1603 1463 1543 1701 1738 1272 925 467 168 150 269 256 42 0 0 0 0 0 0 0 0 0 0 0 0 0 0 0 0 0 0 0 10 30 33 43 47 42
999 831 852 1101 1337 1254 1319 1590 1601 1523 1583 1392 1232 735 395 465 547 224 0 0 0 0 0 0 0 0 0 0 0 0 0 0 0 0 0 0 0 10 27 37 51 46 53 39
1078 686 873 1059 914 939 925 1134 1437 1474 1354 1294 1150 920 783 761 263 1 0 0 0 0 0 0 0 0 0 0 0 0 0 0 0 0 0 0 5 25 41 52 61 65 58 35
CIN
-0 -0 -0 -0 -0 -0 -0 -4 -9 -16 -16 -36 -5 -5 -1 -22 -44 -90 -128 -151 -123 -111 -123 -73 -63 -63 -73 -121 -159 -155 -126 -102 -97 -96 -78 -77 -84 -101 -76 -45 -36 -44 -105 -119
-0 -0 -0 -0 -0 -0 -0 -0 -5 -6 -0 -13 -4 -5 -11 -11 -25 -60 -109 -138 -144 -105 -108 -83 -81 -87 -122 -163 -172 -132 -100 -89 -77 -84 -94 -111 -116 -96 -61 -65 -131 -133 -4 -0
-0 -0 -0 -0 -0 -0 -0 -0 -7 -5 -4 -0 -1 -8 -5 -5 -29 -61 -102 -127 -146 -133 -144 -105 -84 -125 -179 -195 -152 -112 -87 -98 -101 -94 -102 -131 -100 -81 -100 -146 -0 -0 -0 -0
-0 -0 -0 -0 -0 -0 -0 -0 -0 -0 -0 -0 -0 -5 -24 -23 -16 -53 -91 -116 -125 -146 -134 -86 -106 -174 -205 -164 -134 -99 -76 -85 -82 -91 -93 -95 -108 -147 -0 -0 -1 -0 -0 -0
-2 -10 -3 -0 -0 -0 -0 -0 -0 -4 -0 -0 -0 -0 -48 -10 -17 -34 -92 -97 -123 -121 -73 -67 -122 -217 -198 -173 -123 -96 -87 -73 -58 -82 -102 -108 -134 -0 -0 -0 -0 -0 -0 -0
-103 -9 -8 -4 -1 -0 -2 -4 -5 -23 -56 -17 -54 -33 -7 -36 -48 -47 -81 -77 -59 -55 -38 -54 -130 -175 -171 -146 -114 -95 -67 -90 -100 -95 -96 -87 -0 -0 -0 -0 -0 -0 -0 -0
-7 -47 -32 -12 -19 -18 -0 -17 -39 -34 -32 -35 -18 -27 -44 -43 -75 -51 -81 -63 -29 -14 -24 -54 -91 -103 -117 -123 -109 -68 -103 -131 -136 -135 -135 -1 -0 -0 -0 -0 -0 -0 -0 -0
-18 -9 -11 -51 -8 -8 -35 -45 -58 -61 -50 -68 -76 -53 -47 -52 -60 -50 -59 -35 -12 -7 -17 -43 -61 -77 -89 -124 -97 -113 -120 -142 -170 -181 -0 -0 -0 -0 -0 -0 -0 -0 -0 -0
-24 -30 -22 -63 -62 -24 -40 -51 -79 -88 -77 -83 -70 -52 -53 -64 -57 -45 -32 -5 -2 -7 -22 -38 -69 -71 -47 -58 -63 -124 -132 -145 -208 -4 -0 -0 -0 -0 -0 -0 -0 -0 -1 -0
-29 -66 -8 -183 -15 -45 -64 -82 -91 -109 -96 -92 -73 -69 -73 -65 -53 -26 -7 -1 -2 -10 -25 -31 -28 -4 -25 -68 -108 -104 -132 -202 -272 -0 -0 -0 -0 -0 -0 -0 -0 -0 -0 -0
-11 -25 -5 -4 -28 -54 -78 -87 -105 -107 -117 -94 -100 -73 -85 -62 -62 -3 -1 -1 -9 -6 -20 -6 -4 -41 -80 -76 -44 -33 -120 -0 -0 -0 -0 -0 -0 -0 -0 -0 -0 -0 -0 -0
-3 -13 -27 -22 -17 -76 -67 -80 -89 -108 -120 -110 -83 -75 -70 -45 -33 -17 -3 -17 -15 -11 -10 -40 -124 -123 -104 -80 -235 -0 -0 -0 -0 -0 -0 -0 -0 -0 -0 -0 -0 -0 -0 -0
-12 -33 -46 -70 -87 -77 -53 -44 -52 -57 -63 -65 -67 -63 -51 -19 -12 -51 -41 -92 -100 -186 -205 -270 -193 -203 -7 -1 -53 -0 -0 -0 -0 -0 -0 -0 -0 -0 -0 -0 -0 -0 -0 -0
-78 -83 -117 -108 -66 -26 -26 -20 -52 -52 -32 -40 -45 -54 -40 -34 -165 -147 -169 -235 -260 -315 -341 -304 -313 -109 -0 -0 -0 -0 -0 -0 -0 -0 -0 -0 -0 -0 -0 -0 -0 -0 -0 -0
-0 -84 -86 -84 -45 -34 -18 -22 -27 -26 -20 -29 -54 -52 -58 -73 -162 -263 -288 -278 -253 -231 -239 -280 -356 -0 -0 -0 -0 -0 -0 -0 -0 -0 -0 -0 -0 -0 -0 -0 -0 -0 -0 -0
-97 -17 -47 -38 -26 -14 -15 -23 -24 -17 -11 -39 -48 -47 -40 -112 -283 -332 -275 -214 -149 -219 -318 -0 -0 -1 -0 -0 -0 -0 -0 -0 -0 -0 -0 -0 -0 -0 -0 -0 -0 -0 -0 -2
-27 -50 -51 -46 -30 -11 -21 -13 -6 -6 -3 -20 -24 -23 -118 -238 -317 -413 -320 -288 -216 -0 -0 -0 -0 -0 -0 -0 -0 -0 -0 -0 -0 -0 -0 -0 -0 -0 -0 -0 -0 -0 -0 -0
-40 -46 -47 -40 -9 -3 -18 -18 -19 -16 -15 -2 -5 -53 -133 -247 -324 -365 -268 -237 -0 -0 -0 -0 -0 -0 -0 -0 -0 -0 -0 -0 -0 -0 -0 -0 -0 -0 -0 -0 -0 -0 -0 -7
-63 -57 -52 -52 -39 -32 -8 -11 -14 -14 -3 -3 -27 -76 -71 -85 -55 -122 -127 -0 -0 -0 -0 -0 -0 -0 -0 -0 -0 -0 -0 -0 -0 -0 -0 -0 -0 -0 -0 -0 -0 -0 -2 -2
-43 -40 -55 -46 -49 -34 -20 -8 -13 -19 -15 -23 -11 -13 -22 -51 -209 -10 -0 -0 -0 -0 -0 -0 -0 -0 -0 -0 -0 -0 -0 -0 -0 -0 -0 -0 -0 -0 -0 -0 -0 -1 -2 -3
-63 -45 -31 -51 -37 -24 -23 -19 -23 -21 -26 -30 -30 -21 -31 -70 -149 -0 -0 -0 -0 -0 -0 -0 -0 -0 -0 -0 -0 -0 -0 -0 -0 -0 -0 -0 -0 -0 -0 -2 -2 -5 -5 -3
-60 -69 -56 -47 -40 -31 -40 -22 -25 -18 -28 -17 -3 -14 -72 -145 -0 -0 -0 -0 -0 -0 -0 -0 -0 -0 -0 -0 -0 -0 -0 -0 -0 -0 -0 -0 -0 -0 -1 -2 -2 -2 -2 -3
-69 -71 -64 -48 -51 -42 -38 -27 -21 -19 -14 -6 -4 -14 -85 -175 -51 -0 -0 -0 -0 -0 -0 -0 -0 -0 -0 -0 -0 -0 -0 -0 -0 -0 -0 -0 -0 -0 -0 -2 -2 -5 -4 -4
-73 -77 -72 -70 -46 -48 -60 -47 -13 -19 -9 -12 -22 -49 -119 -183 -0 -0 -65 -0 -0 -0 -0 -0 -0 -0 -0 -0 -0 -0 -0 -0 -0 -0 -0 -0 -0 -0 -1 -5 -2 -3 -3 -4
-75 -73 -59 -47 -42 -18 -36 -41 -23 -10 -15 -24 -47 -91 -106 -77 -26 -28 -107 -0 -0 -0 -0 -0 -0 -0 -0 -0 -0 -0 -0 -0 -0 -0 -0 -0 -0 -0 -3 -3 -2 -2 -1 -2
-47 -32 -21 -26 -16 -16 -1 -2 -3 -2 -2 -4 -5 -31 -32 -17 -2 -41 -0 -0 -0 -0 -0 -0 -0 -0 -0 -0 -0 -0 -0 -0 -0 -0 -0 -0 -0 -1 -1 -3 -1 -3 -3 -3
-5 -38 -5 -5 -14 -31 -32 -4 -7 -1 -3 -3 -6 -12 -4 -3 -37 -13 -0 -0 -0 -0 -0 -0 -0 -0 -0 -0 -0 -0 -0 -0 -0 -0 -0 -1 -2 -3 -1 -4 -2 -1 -2 -2
Wind_Speed
34 32 25 30 18 14 34 35 37 33 25 20 17 22 16 9 5 3 1 3 5 7 8 10 12 13 12 11 12 12 12 12 11 12 13 13 14 16 17 17 18 18 18 19
35 29 32 33 34 19 29 36 38 35 36 31 27 21 18 17 3 8 9 10 8 5 8 9 10 11 11 9 9 10 10 10 11 11 11 13 14 15 16 17 18 17 17 17
30 29 29 31 29 30 25 16 30 34 33 33 34 31 20 21 13 7 11 14 11 9 11 12 13 15 14 10 9 8 8 8 9 10 11 12 13 14 16 17 18 18 17 17
29 24 27 29 23 24 28 27 25 28 32 35 36 35 26 29 27 7 6 10 9 9 12 11 13 13 15 15 11 8 7 7 8 9 10 11 12 15 16 18 17 16 16 16
29 25 23 29 17 14 18 17 22 27 26 29 30 32 31 28 19 15 6 6 8 9 11 11 10 10 12 12 10 8 7 6 7 9 10 11 13 15 17 17 16 16 16 16
25 30 26 28 6 8 18 24 20 20 21 24 26 28 17 22 23 21 7 6 7 9 9 9 10 9 10 10 9 6 5 5 7 8 10 11 14 16 17 17 16 15 16 16
21 21 25 11 11 9 19 17 17 19 21 24 25 27 32 27 25 18 6 5 7 9 9 8 8 8 7 6 6 4 5 6 7 8 10 13 15 16 16 16 17 16 17 17
31 25 32 18 18 21 13 14 18 20 22 24 25 27 26 24 23 15 5 5 7 7 7 7 9 7 5 4 3 4 4 5 6 8 11 13 14 16 16 17 15 16 16 16
18 18 19 16 30 11 18 20 21 24 25 26 26 27 27 24 19 14 6 5 7 6 6 7 7 7 4 2 3 4 3 5 7 9 12 14 15 16 15 15 16 15 15 17
23 15 16 3 23 22 23 24 24 26 27 26 26 27 26 22 17 13 9 7 8 7 8 8 7 4 4 4 3 3 3 5 6 9 12 14 14 14 14 15 16 17 18 20
31 32 36 24 21 22 25 26 26 27 27 27 27 25 25 21 19 13 10 9 9 9 8 9 7 4 4 3 2 5 6 6 8 9 10 12 15 18 18 19 21 22 23 22
33 26 28 26 22 25 27 26 26 26 26 26 26 26 24 22 19 18 11 10 8 9 9 7 8 2 1 1 7 3 8 5 7 9 12 12 15 15 17 17 18 19 19 19
31 30 31 32 32 32 32 29 26 25 25 26 24 25 24 21 19 18 14 12 10 9 8 5 4 6 6 4 6 4 3 4 7 9 12 13 12 12 12 12 13 13 14 15
31 32 35 34 35 31 31 27 23 25 25 25 24 24 23 21 21 20 18 14 10 8 6 5 5 4 3 1 3 4 8 8 8 7 13 12 12 13 14 14 14 12 10 11
33 31 34 32 30 30 30 24 24 25 24 24 23 23 22 22 21 19 16 12 9 6 6 5 6 4 2 3 4 5 8 5 6 9 12 13 12 14 13 14 15 19 20 13
22 23 26 29 28 27 25 23 22 25 24 24 23 23 22 20 18 17 15 11 9 9 7 5 4 2 1 2 4 5 7 8 9 9 13 11 11 11 13 14 17 18 18 18
36 37 29 26 25 24 22 18 20 23 24 22 21 19 18 18 15 13 10 5 5 5 3 1 1 1 2 3 5 6 7 8 12 10 10 11 12 13 15 16 17 17 17 19
10 16 20 19 17 16 16 20 23 24 22 17 14 14 14 14 12 7 6 2 0 1 2 3 1 1 2 3 6 7 8 8 9 9 12 12 13 13 14 16 16 16 19 19
7 21 11 8 8 19 20 20 19 15 12 10 10 10 9 9 7 6 4 3 2 1 1 0 1 1 2 4 6 7 11 11 10 11 13 15 12 13 15 16 17 18 18 21
17 17 9 3 6 18 20 15 12 9 8 7 7 7 9 11 9 7 5 6 6 5 2 3 4 4 6 5 8 13 10 10 11 11 12 12 14 15 15 15 16 18 20 21
17 18 14 6 0 4 13 6 9 8 7 6 6 7 9 11 10 8 4 5 5 5 6 3 1 2 3 12 15 12 10 11 11 12 13 13 15 13 16 17 18 19 20 20
18 17 19 18 4 6 8 3 7 7 6 4 5 7 8 10 11 11 11 14 15 16 9 1 25 24 14 11 16 9 10 11 11 13 13 13 14 15 16 17 18 20 18 21
19 19 19 19 17 8 11 12 3 3 3 6 6 7 9 10 12 14 14 14 16 19 18 21 15 7 12 16 11 10 9 11 12 13 13 14 14 15 16 16 15 16 22 25
20 20 20 20 19 9 3 4 4 2 5 6 8 9 9 9 10 10 10 13 12 16 16 11 12 13 14 13 9 9 10 13 12 12 13 14 13 13 13 14 14 19 23 20
22 22 21 21 20 16 13 7 1 2 4 7 8 11 11 9 8 10 10 12 14 15 9 11 12 14 14 10 10 10 12 13 12 12 13 12 13 15 13 13 15 17 19 19
23 24 24 22 22 22 17 10 6 1 3 7 7 10 11 8 10 11 11 11 16 16 8 11 13 13 14 11 11 11 12 11 12 13 13 12 11 11 12 16 16 19 21 22
20 20 21 19 18 19 21 20 11 3 4 6 6 9 10 11 13 14 13 12 14 15 10 14 14 15 14 9 11 11 13 12 12 12 11 12 10 12 14 16 16 16 20 21
Wind_Direction
261 267 271 265 268 237 210 218 236 249 284 300 330 306 351 10 62 27 11 116 108 98 105 106 113 115 110 100 93 88 80 73 65 63 54 46 34 24 20 20 19 14 12 6
260 269 264 264 260 262 214 252 248 258 262 277 293 306 330 331 88 145 144 153 141 118 120 118 118 117 111 101 93 88 80 70 59 51 50 36 27 20 21 17 12 12 9 8
265 266 267 265 264 262 265 208 236 266 268 263 264 269 310 313 325 159 161 159 153 141 139 132 130 129 127 116 105 90 77 67 65 53 38 28 25 21 12 10 9 7 9 11
266 268 262 267 272 265 266 267 274 274 278 270 267 262 297 287 290 290 185 171 166 154 148 139 132 127 126 126 118 103 83 71 51 38 29 27 22 14 11 8 9 11 13 13
261 266 276 266 275 252 266 274 281 286 296 287 284 277 285 294 291 292 241 198 178 165 154 144 139 130 129 127 123 113 95 68 44 25 24 23 12 9 9 10 10 12 12 10
267 268 266 269 265 267 275 275 296 303 306 305 296 282 305 305 294 290 274 208 179 165 157 152 145 141 138 135 129 119 92 68 36 21 17 17 9 8 7 7 7 8 7 5
257 267 272 286 294 288 267 281 306 312 311 308 301 296 290 301 293 294 277 195 175 168 163 159 154 150 150 139 138 105 72 41 27 23 17 9 7 8 7 7 4 5 4 360
260 263 256 298 285 276 289 298 303 308 313 315 308 303 306 300 292 290 260 206 185 185 182 164 157 160 165 169 123 101 79 46 19 13 9 6 7 6 3 2 7 5 2 359
258 267 290 287 263 302 297 296 301 304 308 310 310 307 304 308 300 290 271 230 203 208 204 189 180 171 170 175 118 90 58 37 6 1 1 1 3 2 3 6 3 1 2 358
281 286 292 319 287 293 299 297 299 301 304 306 309 309 307 311 307 296 282 253 244 227 211 221 205 196 162 145 131 96 37 4 14 355 345 354 1 3 1 2 1 2 359 355
270 279 278 303 308 311 306 302 300 301 300 301 301 307 308 309 306 304 285 273 254 235 229 223 211 179 166 146 56 323 1 27 14 10 357 4 356 354 356 357 360 357 356 357
288 299 291 293 308 307 306 305 304 302 302 302 299 300 304 304 304 300 293 284 243 246 241 243 210 174 44 27 78 34 338 22 10 11 356 359 357 358 359 7 7 2 2 3
290 293 291 290 293 295 295 296 300 301 301 300 305 301 299 301 303 302 300 291 271 269 245 244 203 122 124 123 348 13 22 20 13 1 352 354 358 4 5 6 5 12 16 14
289 288 284 287 287 293 294 295 296 297 300 302 303 305 300 300 300 294 296 293 287 269 253 238 191 200 185 170 337 32 15 359 19 18 349 0 5 7 4 5 9 11 12 10
286 287 284 287 289 291 294 295 292 291 295 300 302 303 303 302 301 298 295 288 282 269 268 260 273 283 301 354 81 64 22 57 46 10 10 2 11 5 10 12 12 6 6 12
297 295 293 289 293 294 295 294 294 290 292 297 300 302 303 305 306 303 298 288 273 275 278 280 286 298 61 48 30 37 29 22 10 24 9 8 18 19 17 18 10 9 14 16
265 264 286 292 296 301 300 297 295 293 293 297 302 304 309 310 312 306 302 301 275 282 279 271 294 339 21 43 35 21 11 9 353 28 22 25 25 24 22 16 16 20 19 19
313 302 296 297 305 313 309 297 293 294 295 304 313 317 320 321 318 322 316 319 128 299 295 287 293 19 36 41 17 35 22 12 73 42 23 31 31 33 30 26 28 25 20 18
334 296 298 278 283 297 296 294 299 309 320 323 330 339 354 4 2 360 353 337 318 305 305 85 127 35 4 30 46 58 84 77 48 40 30 29 53 43 36 36 31 29 25 19
345 325 330 299 287 272 281 301 320 344 352 4 1 26 16 6 3 1 28 337 318 317 108 102 116 63 80 80 77 99 71 51 49 49 52 60 49 48 48 45 38 30 25 23
358 334 340 350 62 305 294 340 322 329 342 352 40 50 21 25 28 28 38 2 353 299 283 122 72 18 25 105 121 103 60 47 57 64 70 70 57 61 46 40 34 29 25 23
332 344 302 300 348 304 305 358 324 323 338 53 78 51 55 54 56 63 91 100 105 114 108 172 182 151 112 105 130 45 53 48 73 76 76 69 61 50 46 40 34 27 27 23
315 316 305 293 295 319 297 296 355 25 67 104 104 97 91 78 81 91 94 102 109 125 127 143 125 86 103 126 101 59 35 67 94 91 81 70 60 50 45 41 37 33 25 20
303 306 304 303 307 339 116 317 320 78 106 104 115 114 103 94 94 95 79 112 113 128 127 107 111 114 115 118 70 34 78 103 97 88 68 61 68 57 50 44 38 27 22 25
298 300 303 302 301 306 305 314 1 102 108 123 114 128 124 107 93 109 96 109 121 127 95 107 115 120 122 88 82 87 106 106 88 91 91 84 69 50 51 43 33 27 25 30
294 290 292 297 292 287 293 299 292 214 149 142 132 138 138 117 116 107 101 102 124 132 90 110 120 124 130 104 99 100 109 97 93 107 91 90 71 63 50 37 35 31 25 24
304 301 295 299 300 295 285 283 293 266 241 173 155 143 140 133 125 119 111 111 119 124 102 123 126 136 131 93 108 104 114 108 108 105 80 70 81 59 46 35 34 34 28 26